Find Starlink 31535

NORAD ID: 59504 Int'l Des: 2024-071 Owner: SPXS Country: US Constellation: starlink operational
LEOCIRCULAR

Current View

Loading 3D Globe...

About Starlink 31535

Starlink 31535 (NORAD 59504) is a starlink constellation satellite (v2 mini) launched Apr 13, 2024 by SPXS of US. It operates in LEO, CIRCULAR orbit with a mass of 730.00 kg.

About Starlink 31535

Description loading...

Upcoming Passes

Passes for default location (London). Set your location on the main map for personalized predictions.

Altitude History

Loading altitude history...

Two-Line Element Set

1 59504U 24071W 26171.20131939 .00000364 00000-0 22759-4 0 9994
2 59504 43.0035 128.5775 0001201 275.7653 84.3062 15.27577172123793
Epoch: Jun 20, 2026 • Age: 18 hours

Current Status

Altitude 485.4 km
Velocity 7.62 km/s
Sub-Earth Point -13.61°S, 65.63°E
Launch Date Apr 13, 2024
Age 2.1 years
Type internet

Technical Details

Classification Payload
Mass 730.00 kg
Dry Mass 700.00 kg
Total Mass 730.00 kg
Length 0.30 m
Diameter 4.10 m
Span 29.00 m
Shape Box + pan
Manufacturer SPXS
Bus Type Starlink V2M
Phase Status In Orbit
Owner/State SPXS/US

Most Searched